Temperature
28 28 28 28 28 28 27 27 27 27 27 28 28 28 27 26 24 23 22 21 21 20 20 19 18 18 17 17 16 15 14 14 13 12 12 11 11 10 10 10 9 9 9 9
27 28 28 27 27 27 27 27 27 27 27 29 28 26 26 25 24 23 22 22 21 21 20 19 19 18 17 17 16 15 14 14 13 12 12 11 10 10 10 9 9 9 9 9
26 28 27 26 27 27 27 28 27 27 28 28 27 27 26 25 24 24 23 22 22 21 20 20 19 18 17 17 16 15 14 14 13 12 12 11 10 10 10 9 9 9 9 8
26 26 25 27 29 28 27 28 28 27 28 28 27 26 25 24 24 24 23 23 22 21 21 20 19 18 18 17 16 15 14 14 13 12 12 11 10 10 10 9 9 9 8 8
26 26 26 28 28 28 27 27 28 28 28 27 26 25 26 25 24 24 23 23 22 22 21 20 19 18 17 16 16 15 14 14 13 12 12 11 11 10 10 9 9 9 8 8
25 25 24 27 27 27 27 26 28 27 27 27 26 26 27 26 25 24 23 23 22 21 21 20 19 18 18 16 16 15 14 13 13 12 12 12 11 11 10 9 9 9 8 8
25 25 26 27 26 26 26 25 26 26 26 26 26 26 26 25 25 24 23 22 22 21 20 20 19 19 18 17 16 15 14 14 13 13 12 12 11 11 10 9 9 8 8 8
25 25 25 26 26 26 24 24 24 24 24 24 24 24 24 24 23 23 22 22 21 20 20 19 19 19 18 17 16 15 15 14 13 13 12 11 11 11 10 9 8 8 8 8
26 26 25 24 23 22 22 22 22 22 23 23 23 23 23 23 22 22 21 21 20 20 19 19 19 18 18 17 16 15 15 14 13 13 12 12 11 10 9 8 8 8 8 8
25 26 24 22 20 19 19 19 20 20 21 21 22 22 21 21 20 20 20 19 19 19 18 18 18 17 17 16 16 15 15 14 13 13 12 11 10 9 9 9 8 8 8 8
24 24 23 20 18 18 17 18 18 18 19 19 19 19 19 19 18 18 18 18 18 17 17 16 16 17 16 16 15 15 14 14 13 12 12 11 10 10 9 9 8 8 8 8
23 20 20 18 17 17 17 17 17 17 17 17 17 17 17 17 17 17 17 16 16 16 16 16 16 16 16 15 15 15 14 13 12 12 11 11 10 10 10 9 9 8 8 8
18 17 17 16 16 16 16 16 16 16 16 16 16 16 16 16 16 16 16 16 16 15 15 15 15 15 15 14 14 14 13 13 12 12 11 11 10 10 10 10 9 9 8 8
16 16 16 15 15 15 16 16 16 16 15 15 15 15 15 15 15 15 15 15 15 15 14 15 14 14 14 14 13 13 13 12 12 12 11 10 10 10 9 9 9 9 9 8
15 15 15 15 15 15 15 15 15 15 15 14 14 14 14 14 14 14 14 14 14 14 14 13 13 13 13 13 12 12 12 12 11 11 11 10 10 9 9 9 9 9 9 8
14 14 14 14 13 13 13 13 14 14 14 14 14 13 13 13 13 13 13 13 13 13 12 12 12 12 12 11 11 11 12 12 11 11 10 10 10 10 9 9 9 9 8 8
13 13 13 12 12 12 13 13 13 13 13 13 13 13 13 12 12 12 12 11 11 11 11 11 11 11 11 10 10 11 11 11 11 10 10 10 9 9 9 9 8 8 8 8
12 12 11 11 11 12 12 12 12 12 12 12 12 12 12 12 11 11 11 11 11 11 11 10 10 10 10 10 10 10 10 10 10 10 10 9 9 9 9 8 8 8 8 8
11 11 11 11 11 11 11 11 11 11 11 11 11 11 11 11 11 10 10 10 10 10 10 9 9 9 9 9 9 9 9 9 9 9 9 9 8 8 8 8 8 8 7 7
11 11 11 11 11 11 11 11 10 10 10 10 10 10 10 10 10 10 10 10 10 9 8 8 8 9 9 9 9 9 9 8 8 8 8 8 8 8 8 8 7 7 7 7
11 11 11 11 11 11 10 10 10 10 10 10 10 10 10 10 9 9 9 10 9 8 8 8 8 8 8 8 8 8 8 8 8 8 7 7 7 7 7 7 6 6 6 6
11 11 10 10 10 10 10 9 10 10 9 9 9 9 9 9 9 9 9 9 8 8 7 7 7 7 7 7 7 7 7 7 7 6 6 6 6 6 6 6 6 5 6 6
10 10 10 10 10 9 9 9 9 9 9 9 9 9 9 9 9 9 8 8 8 7 7 7 6 6 6 6 6 6 6 6 6 6 6 6 6 5 5 5 5 5 5 5
10 9 9 9 9 9 9 9 9 9 9 9 9 9 9 9 9 9 8 7 7 6 6 6 6 5 5 5 5 5 5 5 4 5 5 5 5 4 4 4 4 4 4 5
9 9 9 9 9 9 9 9 9 9 9 9 9 9 9 9 8 8 7 7 6 6 5 5 5 4 4 4 4 4 3 3 3 3 3 3 3 3 3 3 3 4 4 5
9 9 9 9 9 8 9 9 9 9 9 9 9 9 9 8 8 7 7 6 5 5 4 4 3 3 3 3 2 2 2 2 2 2 2 2 2 2 2 3 3 4 4 5
9 9 9 9 9 9 9 9 9 9 9 8 8 8 8 8 7 7 6 5 5 4 3 3 2 2 2 1 1 1 1 1 1 1 1 2 2 2 2 2 3 3 4 4
Wind_Speed
10 8 7 10 11 9 10 12 13 12 11 9 6 5 6 7 9 10 11 12 11 10 9 8 7 7 6 6 6 6 7 9 9 10 10 11 11 11 11 11 12 12 12 13
12 10 9 11 10 8 8 8 10 11 11 6 2 4 6 7 10 12 12 12 12 11 10 9 8 8 7 7 6 6 8 9 9 9 10 10 11 11 11 12 12 12 12 13
12 8 9 10 6 5 6 6 8 10 9 6 4 5 6 8 10 12 12 12 12 12 11 9 9 8 7 7 6 7 8 9 9 9 10 10 11 11 12 12 12 12 12 12
10 7 10 5 1 5 8 9 8 9 9 6 5 5 6 8 10 11 12 12 12 12 11 10 9 8 7 7 6 7 8 8 9 9 10 10 11 11 12 11 12 12 12 12
8 10 9 7 3 4 7 10 7 6 7 6 3 6 10 10 11 12 12 12 12 12 11 10 10 9 8 7 7 8 8 8 9 9 10 10 11 11 11 11 12 12 12 12
7 9 9 5 4 1 5 8 4 5 8 9 5 10 9 3 8 12 13 12 12 12 11 11 11 10 9 9 8 8 8 7 8 8 9 11 11 11 11 11 12 12 12 12
9 9 8 4 4 2 6 7 11 11 11 11 10 12 12 8 7 9 11 12 12 12 12 12 11 11 10 10 9 8 7 7 8 8 9 10 11 10 11 11 12 12 13 13
6 8 4 7 4 6 10 13 13 14 14 13 14 15 14 12 9 9 10 11 12 11 12 11 12 12 12 11 9 7 6 7 8 9 9 9 10 11 11 11 12 12 12 13
5 6 6 7 7 9 11 12 13 14 15 14 13 13 13 11 9 9 9 9 9 11 11 11 12 12 12 10 8 7 7 8 8 9 9 9 10 11 11 10 10 10 11 11
6 4 5 9 11 12 11 11 12 12 12 11 11 11 10 9 7 7 7 7 7 8 10 10 10 11 10 8 8 8 9 9 8 9 9 10 9 10 10 10 10 10 11 11
7 3 3 9 13 13 12 12 12 13 13 12 10 10 10 9 8 7 6 5 4 5 7 7 7 8 9 9 9 9 9 9 9 9 9 9 10 10 11 10 10 11 12 12
3 5 5 6 10 11 12 13 14 14 15 15 14 14 13 11 10 10 9 7 5 3 4 5 6 7 9 9 10 11 10 10 9 8 7 9 10 10 12 14 13 15 17 16
2 5 7 7 9 11 11 12 13 14 15 14 15 14 13 12 11 10 9 8 7 5 5 5 5 7 8 9 11 12 12 11 9 9 8 9 10 10 11 10 15 18 20 19
6 8 9 9 9 11 12 12 12 14 14 14 14 14 13 12 12 12 11 10 8 7 7 7 7 8 8 8 11 13 13 12 10 9 9 9 10 10 10 11 11 10 11 16
11 10 10 10 10 12 12 13 14 14 15 14 13 14 14 13 12 12 11 11 10 10 10 10 10 10 9 9 12 13 12 10 9 9 9 10 10 10 10 11 11 11 11 9
11 10 10 10 11 12 13 14 14 14 14 14 14 14 13 12 12 12 13 13 13 13 13 12 13 13 12 11 12 11 11 12 11 9 10 10 9 10 10 10 11 11 11 10
8 9 9 10 11 12 12 13 13 14 15 15 15 14 14 13 13 12 13 13 13 14 13 13 14 15 15 13 12 11 11 10 12 11 10 10 9 9 10 10 10 10 11 9
8 7 7 8 10 12 13 14 14 15 14 15 15 14 14 13 13 14 14 15 15 15 14 16 17 18 17 14 12 11 10 10 9 9 8 8 8 9 10 10 10 11 11 9
6 6 8 9 9 11 12 13 14 14 14 14 14 14 14 14 13 14 15 16 16 16 16 18 18 19 17 14 11 10 10 9 8 7 7 7 8 9 9 10 10 10 10 10
5 7 9 10 12 13 13 14 14 14 14 14 14 14 14 13 14 15 15 15 13 14 16 18 19 18 16 13 10 9 8 8 8 6 6 7 7 8 8 9 9 9 9 9
8 10 12 13 13 14 14 14 14 14 14 14 14 14 14 15 15 15 15 15 14 14 16 17 15 15 14 13 10 9 7 6 5 5 5 6 7 8 8 8 9 9 8 8
10 12 13 14 14 14 13 14 14 15 14 15 15 16 16 16 17 16 15 13 13 12 14 15 14 13 14 13 9 7 5 4 3 4 5 6 7 7 8 8 8 8 8 8
12 12 13 14 14 15 15 15 15 15 15 16 17 17 16 16 15 14 14 12 13 13 13 12 12 13 14 9 6 5 5 4 4 4 5 5 6 7 7 8 8 8 8 8
13 13 14 14 15 16 16 15 15 15 16 17 16 16 15 14 13 12 13 12 10 11 11 8 10 11 11 7 6 5 5 5 5 5 6 6 6 7 7 7 7 7 8 9
14 15 15 15 16 15 15 16 16 16 16 14 16 16 14 12 12 12 12 13 10 9 9 6 7 9 8 7 6 6 5 5 6 6 6 7 7 7 7 7 7 8 8 8
14 14 14 14 14 14 15 14 13 13 14 14 14 14 13 12 13 11 10 11 11 8 7 6 7 7 7 6 6 6 7 6 6 6 7 7 8 8 7 7 9 7 7 7
15 14 13 13 13 12 12 12 13 14 14 14 14 14 14 13 12 11 10 9 8 7 6 6 6 6 6 6 6 7 6 7 7 7 7 7 7 7 8 9 7 7 7 7
Wind_Direction
273 281 280 287 292 283 265 274 283 293 296 300 294 253 233 218 207 202 199 198 200 206 208 210 214 219 230 245 255 265 272 277 281 282 282 280 279 277 277 277 278 280 281 281
266 262 266 275 281 282 277 273 276 283 287 301 300 234 223 215 210 209 208 208 209 213 216 216 217 222 228 239 250 258 269 278 286 288 287 286 285 282 280 278 280 281 280 281
268 263 262 265 267 279 286 286 286 290 305 324 290 251 239 231 223 223 220 217 217 219 220 218 216 216 223 234 246 257 268 277 285 288 290 290 290 289 285 284 283 282 282 281
267 263 261 275 295 289 293 294 289 287 293 293 285 279 258 244 237 234 229 226 224 224 220 214 209 208 215 226 238 256 268 278 286 289 291 293 291 289 289 287 287 286 284 282
260 260 263 269 256 266 286 294 301 299 298 290 284 273 258 233 227 234 233 230 229 228 224 210 207 204 208 226 240 256 268 278 287 292 293 293 291 291 291 289 287 286 284 282
248 269 275 299 53 350 279 276 350 332 309 302 273 284 304 302 217 228 232 231 228 225 219 205 201 198 208 227 240 254 269 279 286 287 288 290 291 292 291 288 285 286 286 284
254 264 271 27 50 252 270 342 355 332 316 303 285 282 303 300 250 232 233 232 227 222 216 208 196 193 209 226 238 251 262 270 276 280 282 283 286 286 285 285 286 288 288 284
258 267 299 54 359 328 337 335 328 322 314 307 295 288 290 287 272 253 245 238 228 220 218 207 195 195 210 224 233 239 248 261 270 275 279 283 283 282 282 282 283 283 284 285
280 296 13 19 357 351 340 326 323 319 316 310 300 295 296 293 285 276 267 259 243 230 224 212 202 202 214 222 223 228 238 251 262 270 272 275 276 278 277 274 277 283 285 287
274 281 8 28 22 9 360 347 338 336 332 328 318 318 321 323 320 309 295 280 261 243 234 223 212 211 216 216 213 223 238 250 257 263 268 269 271 272 275 278 280 281 284 285
260 306 7 42 23 16 17 19 20 21 19 13 9 6 5 4 1 353 341 322 291 260 248 236 215 212 216 214 211 221 235 246 254 260 266 274 271 269 274 277 281 285 289 289
334 26 359 25 24 25 32 34 32 33 35 34 32 30 29 27 21 16 11 4 350 315 279 255 227 222 221 216 211 220 234 242 250 257 263 269 275 276 244 240 252 248 251 262
3 52 73 68 46 39 41 40 39 37 34 30 28 25 25 23 20 18 15 9 356 336 314 290 266 252 243 227 221 225 236 244 252 259 264 267 273 280 287 266 233 236 243 246
108 105 81 64 52 40 36 34 34 33 29 26 21 17 14 11 9 8 4 359 349 336 320 302 286 276 265 244 234 235 240 240 241 254 262 269 274 278 282 289 294 289 258 237
89 90 86 69 51 39 30 24 22 18 13 10 10 7 4 1 359 357 355 352 348 340 332 323 311 302 290 264 248 243 242 244 240 250 260 266 271 275 280 283 285 290 295 282
96 83 68 52 36 23 16 12 6 359 354 352 352 350 348 346 345 348 351 352 347 340 336 331 323 318 307 285 265 252 244 241 241 250 260 264 267 273 280 283 286 289 290 294
85 63 43 28 16 6 360 354 347 342 339 338 336 334 334 337 339 344 346 345 340 334 332 333 330 326 315 298 278 266 258 242 214 236 251 260 270 277 282 284 287 290 291 295
69 52 30 11 357 348 344 341 337 333 329 327 325 325 327 329 330 334 335 333 330 326 332 334 332 324 312 300 287 276 265 260 247 244 252 259 271 279 282 285 286 289 293 291
45 22 4 353 344 336 333 331 330 327 324 323 321 321 321 321 325 327 329 327 324 325 335 334 329 316 311 306 295 276 266 260 256 252 256 258 263 272 282 287 289 292 296 300
6 352 342 337 337 336 332 331 329 326 325 324 321 320 321 323 325 325 326 320 325 335 333 329 324 320 319 318 310 286 271 261 258 258 260 270 277 284 288 292 297 298 299 302
335 332 332 333 332 331 330 328 325 322 322 322 321 319 319 320 319 320 319 318 327 339 331 319 320 328 329 330 313 297 281 266 262 265 270 277 284 291 297 301 303 303 304 306
323 323 324 323 322 321 321 318 315 316 317 317 317 316 315 314 315 315 313 316 323 343 331 325 331 345 338 324 314 309 301 291 287 286 283 286 293 299 303 308 307 306 307 308
314 314 313 313 313 312 309 308 309 312 312 312 310 309 309 312 311 310 312 324 327 337 327 331 349 346 333 325 324 321 317 311 302 296 299 303 305 305 308 312 312 309 309 312
306 306 306 305 305 303 302 306 307 306 304 301 301 306 307 306 309 314 321 327 336 332 327 354 359 346 330 334 337 339 339 338 331 325 321 320 319 317 319 319 314 312 313 313
300 300 298 298 297 299 304 303 301 300 300 303 306 308 307 309 314 320 321 322 332 325 327 359 11 349 344 354 358 357 354 359 352 338 336 334 329 325 323 320 317 314 312 312
295 293 296 296 295 293 292 295 300 304 304 305 307 308 310 312 314 318 318 322 329 336 336 349 3 1 2 2 3 1 357 356 352 345 342 334 328 326 323 322 318 316 312 313
288 287 285 285 288 293 300 303 303 304 305 305 308 310 310 311 314 319 322 327 339 351 3 11 14 12 5 2 3 3 1 357 353 349 342 337 332 328 325 321 318 314 314 318
Height
1495 1493 1494 1496 1495 1494 1498 1498 1500 1495 1492 1487 1487 1490 1493 1496 1499 1502 1505 1507 1509 1511 1512 1513 1514 1514 1514 1514 1514 1513 1511 1510 1509 1507 1504 1502 1500 1498 1496 1493 1491 1489 1487 1484
1498 1492 1493 1495 1492 1491 1492 1492 1492 1491 1490 1483 1487 1490 1492 1494 1496 1498 1500 1502 1505 1506 1508 1509 1510 1510 1511 1510 1510 1509 1507 1506 1504 1502 1500 1497 1495 1493 1490 1488 1485 1483 1481 1478
1500 1489 1493 1498 1488 1488 1488 1486 1487 1489 1485 1483 1485 1488 1489 1491 1492 1494 1496 1498 1500 1502 1503 1504 1505 1506 1506 1506 1505 1504 1503 1501 1500 1497 1495 1492 1490 1487 1485 1482 1480 1477 1475 1472
1495 1497 1510 1490 1480 1482 1485 1483 1481 1482 1482 1483 1485 1487 1487 1488 1489 1490 1492 1494 1495 1497 1499 1500 1500 1501 1501 1501 1501 1500 1499 1497 1495 1493 1490 1487 1484 1482 1479 1476 1474 1471 1468 1466
1495 1499 1496 1483 1477 1480 1483 1483 1477 1479 1480 1481 1483 1484 1482 1482 1484 1486 1487 1489 1491 1492 1494 1495 1495 1496 1496 1496 1496 1495 1494 1493 1491 1488 1485 1482 1479 1476 1473 1470 1467 1465 1462 1460
1495 1503 1505 1486 1479 1481 1483 1485 1476 1479 1480 1479 1481 1480 1475 1477 1480 1481 1482 1484 1485 1487 1488 1488 1489 1490 1491 1491 1491 1491 1490 1488 1485 1482 1480 1477 1474 1470 1468 1464 1461 1459 1456 1454
1492 1496 1486 1478 1481 1482 1490 1487 1481 1481 1480 1479 1478 1478 1477 1476 1476 1477 1478 1479 1480 1481 1481 1482 1483 1484 1484 1485 1485 1485 1484 1482 1480 1477 1474 1471 1468 1465 1462 1459 1456 1454 1451 1448
1489 1495 1490 1482 1481 1484 1487 1485 1484 1482 1481 1479 1477 1475 1474 1474 1473 1473 1473 1474 1474 1474 1475 1476 1476 1477 1478 1479 1479 1479 1478 1476 1474 1472 1469 1467 1464 1460 1457 1454 1451 1448 1445 1443
1483 1485 1484 1486 1488 1489 1489 1487 1484 1481 1479 1477 1474 1472 1471 1470 1470 1469 1469 1469 1469 1469 1469 1469 1470 1471 1472 1473 1474 1473 1472 1471 1469 1467 1464 1461 1458 1455 1453 1450 1447 1444 1441 1438
1484 1480 1484 1488 1489 1490 1488 1486 1483 1480 1477 1474 1472 1469 1468 1467 1466 1465 1465 1465 1464 1464 1464 1464 1464 1465 1467 1468 1468 1468 1467 1465 1463 1461 1459 1456 1453 1451 1449 1446 1443 1440 1437 1434
1483 1483 1486 1489 1492 1490 1488 1485 1482 1479 1476 1474 1471 1469 1467 1465 1464 1462 1461 1460 1459 1458 1458 1459 1459 1460 1462 1462 1462 1461 1460 1459 1458 1456 1454 1451 1448 1445 1443 1440 1438 1434 1431 1429
1483 1491 1491 1494 1493 1491 1489 1486 1484 1481 1478 1476 1473 1470 1468 1466 1464 1462 1460 1458 1457 1455 1455 1456 1455 1455 1456 1456 1455 1455 1454 1453 1452 1450 1448 1446 1443 1440 1436 1433 1430 1427 1424 1422
1492 1493 1494 1495 1494 1493 1491 1489 1486 1483 1481 1478 1475 1473 1470 1468 1465 1462 1460 1457 1456 1455 1453 1453 1452 1450 1450 1450 1449 1448 1447 1446 1445 1444 1442 1440 1438 1435 1432 1428 1425 1421 1418 1415
1493 1494 1496 1496 1496 1494 1492 1490 1488 1485 1483 1480 1477 1474 1471 1469 1466 1463 1460 1457 1454 1452 1451 1449 1448 1446 1445 1443 1442 1441 1440 1439 1438 1437 1436 1434 1432 1429 1426 1423 1420 1416 1413 1410
1496 1496 1498 1498 1497 1495 1494 1491 1488 1486 1483 1480 1478 1475 1472 1469 1465 1462 1459 1456 1453 1451 1449 1446 1444 1441 1439 1437 1435 1434 1433 1432 1431 1430 1429 1428 1425 1423 1420 1417 1413 1410 1407 1404
1498 1499 1499 1498 1497 1495 1493 1490 1488 1486 1483 1480 1477 1474 1471 1468 1465 1462 1458 1455 1452 1449 1446 1443 1440 1437 1434 1431 1429 1426 1425 1424 1423 1422 1422 1421 1419 1417 1414 1411 1408 1405 1401 1399
1500 1500 1499 1498 1497 1495 1493 1491 1488 1485 1482 1479 1476 1473 1469 1466 1463 1460 1456 1453 1451 1448 1444 1440 1436 1432 1429 1426 1422 1420 1418 1417 1415 1414 1414 1414 1413 1410 1408 1405 1402 1399 1396 1393
1501 1501 1500 1498 1497 1494 1492 1489 1487 1483 1480 1477 1473 1470 1467 1464 1461 1457 1454 1451 1447 1444 1441 1437 1432 1427 1423 1419 1416 1414 1412 1411 1409 1408 1408 1407 1406 1404 1402 1400 1396 1394 1391 1388
1501 1500 1499 1497 1495 1493 1490 1487 1484 1481 1477 1474 1470 1467 1464 1461 1458 1455 1451 1448 1443 1440 1436 1432 1426 1421 1417 1413 1409 1406 1405 1404 1403 1402 1402 1401 1399 1398 1396 1394 1391 1388 1386 1383
1500 1499 1497 1495 1493 1491 1488 1484 1481 1478 1475 1471 1468 1464 1461 1458 1455 1452 1448 1445 1441 1437 1432 1427 1421 1417 1412 1408 1404 1401 1399 1398 1397 1397 1396 1396 1395 1393 1391 1389 1386 1383 1380 1378
1498 1496 1495 1492 1490 1487 1485 1482 1478 1475 1472 1469 1465 1462 1459 1455 1452 1448 1444 1440 1437 1432 1427 1423 1418 1413 1408 1403 1399 1397 1394 1393 1392 1392 1391 1390 1390 1388 1386 1384 1381 1378 1376 1374
1495 1493 1491 1489 1486 1484 1481 1478 1475 1472 1469 1466 1462 1459 1455 1452 1448 1444 1441 1437 1433 1428 1423 1419 1414 1409 1403 1399 1395 1393 1391 1389 1388 1387 1387 1386 1385 1383 1381 1379 1377 1374 1372 1369
1492 1490 1488 1485 1483 1480 1477 1474 1471 1468 1465 1462 1458 1455 1451 1447 1444 1440 1436 1432 1428 1424 1419 1415 1410 1405 1400 1395 1392 1389 1387 1386 1385 1384 1383 1382 1380 1379 1377 1374 1372 1370 1368 1366
1488 1486 1483 1481 1478 1475 1472 1469 1466 1463 1460 1457 1453 1449 1446 1442 1438 1435 1431 1427 1423 1419 1415 1410 1405 1401 1396 1393 1389 1387 1384 1383 1382 1381 1379 1378 1376 1374 1372 1370 1368 1366 1364 1362
1483 1481 1478 1476 1473 1469 1466 1463 1460 1457 1454 1450 1447 1444 1441 1437 1434 1430 1427 1423 1419 1414 1410 1406 1401 1398 1394 1390 1387 1384 1382 1380 1379 1377 1376 1374 1372 1370 1368 1366 1364 1362 1361 1359
1478 1475 1472 1470 1467 1465 1461 1458 1454 1451 1448 1445 1442 1439 1436 1433 1429 1426 1422 1418 1414 1410 1406 1402 1398 1395 1392 1388 1385 1383 1381 1379 1377 1375 1373 1371 1369 1367 1365 1362 1361 1359 1358 1356
1471 1469 1466 1463 1460 1458 1455 1452 1450 1446 1443 1440 1437 1434 1431 1428 1425 1421 1418 1414 1410 1407 1403 1400 1396 1393 1390 1387 1385 1382 1379 1377 1375 1373 1371 1368 1366 1364 1362 1360 1358 1356 1355 1354